Regional Weather Roundup
Issued by NWS

Home | Current Version | Previous Version | Text Only | Print | Product List | Glossary On
Versions: 1 2 3 4 5 6 7 8 9 10 11 12 13 14 15 16 17 18 19 20 21 22 23 24 25 26 27 28 29 30 31 32 33 34 35 36 37 38 39 40 41 42 43 44 45 46 47 48 49 50
000
ASUS43 KMPX 270801
RWRMN
WEATHER ROUNDUP FOR MINNESOTA
NATIONAL WEATHER SERVICE TWIN CITIES/CHANHASSEN MN
300 AM CDT SAT MAY 27 2017


NOTE: "FAIR" INDICATES FEW OR NO CLOUDS BELOW 12,000 FEET WITH NO
SIGNIFICANT WEATHER AND/OR OBSTRUCTIONS TO VISIBILITY. N/A MEANS
CURRENT SKY AND/OR WEATHER CONDITIONS ARE NOT AVAILABLE.

MNZ060>063-068>070-270900-
   Twin Cities Metro

CITY           SKY/WX    TMP DP  RH WIND       PRES   REMARKS
TWIN CITIES    CLEAR     61  46  57 CALM      29.85S
ST PAUL        CLEAR     56  51  84 CALM      29.85S
CRYSTAL        CLEAR     52  45  77 CALM      29.84S
BLAINE         CLEAR     55  48  76 CALM      29.85S
LAKEVILLE      CLEAR     52  48  87 CALM      29.86S
EDEN PRAIRIE   CLEAR     57  46  66 NW5       29.85R
SOUTH ST PAUL  CLEAR     56  48  74 CALM      29.84F
LAKE ELMO      FAIR      50  50 100 CALM      29.85F
$$
MNZ001>005-007-008-013>017-022>024-027-028-270900-
   Northwest Minnesota

CITY           SKY/WX    TMP DP  RH WIND       PRES   REMARKS
BEMIDJI        CLEAR     49  43  79 SW3       29.81S
HALLOCK        CLOUDY    46  39  76 SW3       29.75S
ROSEAU         PTCLDY    48  43  81 S8        29.76R
WARROAD        CLEAR     50  45  81 SW5       29.76S
CROOKSTON      PTCLDY    48  41  76 SW7       29.80R
FOSSTON        CLOUDY    45  39  81 S7        29.82S
DETROIT LAKES  CLOUDY    52  43  71 CALM      29.85R
MOORHEAD       CLOUDY    52  43  71 S6        29.83S
PARK RAPIDS    CLOUDY    49  41  74 W3        29.83S
MAHNOMEN       FAIR      47  42  83 S8        29.82S
$$
MNZ006-009>011-018-025>026-270900-
   North Central Minnesota

CITY           SKY/WX    TMP DP  RH WIND       PRES   REMARKS
BAUDETTE       CLEAR     47  43  86 SW3       29.76R
INTL FALLS     CLEAR     52  43  71 W6        29.76F
WASKISH        CLEAR     54  46  76 SW5       29.78S
BIG FORK       CLEAR     43  41  93 CALM      29.80S
LONGVILLE      MOCLDY    46  45  93 CALM      29.81F
GRAND RAPIDS   PTCLDY    53  44  71 W3        29.82S
CRANE LAKE     CLEAR     43  43 100 CALM      29.80R
ORR            CLEAR     52  43  71 CALM      29.76S
COOK           CLEAR     43  43 100 CALM      29.80R
WALKER         FAIR      47  42  84 CALM      29.81F
$$
MNZ012-019>021-037-270900-
   Northeast Minnesota

CITY           SKY/WX    TMP DP  RH WIND       PRES   REMARKS
DULUTH         CLEAR     53  47  79 NW6       29.81R
ELY            CLEAR     46  46 100 CALM      29.79R FOG
HIBBING        CLEAR     41  41 100 CALM      29.80R
EVELETH        CLEAR     44  43  93 CALM      29.82R
DULUTH HARBOR  CLEAR     48  46  93 SW10      29.81R
TWO HARBORS    CLEAR     46  43  87 CALM      29.77S
SILVER BAY     CLEAR     45  43  93 CALM      29.77S FOG
GRAND MARAIS     N/A     46  45  96 CALM      29.77F
G MARAIS ARPRT CLEAR     45  39  81 CALM      29.79S
$$
MNZ029>031-032-039>041-046>048-054>057-064-270900-
   West Central Minnesota

CITY           SKY/WX    TMP DP  RH WIND       PRES   REMARKS
FERGUS FALLS   PTCLDY    52  45  76 CALM      29.84S
WHEATON        MOCLDY    52  45  76 SW3       29.88R
MORRIS         CLEAR     54  46  76 SW6       29.86S
ALEXANDRIA     CLEAR     51  45  79 SW5       29.87S
ELBOW LAKE     FAIR      49  45  84 CALM      29.86S
WADENA         MOCLDY    48  43  81 SW3       29.84S
GLENWOOD       CLEAR     48  45  87 SW6       29.87R
APPLETON       CLEAR     52  46  82 SW5       29.87R
BENSON         CLEAR     50  45  81 CALM      29.89R
ORTONVILLE     CLEAR     52  45  76 W5        29.87S
MADISON        CLEAR     52  48  87 SW3       29.88S
WILLMAR        FAIR      52  46  82 CALM      29.89S
$$
MNZ033>034-036-042>043-049>051-058-059-270900-
   Central Minnesota

CITY           SKY/WX    TMP DP  RH WIND       PRES   REMARKS
ST CLOUD       CLEAR     49  46  90 CALM      29.85R
SAUK CENTRE    FAIR      49  44  81 CALM      29.86S
PAYNESVILLE    CLEAR     47  46  94 CALM      29.88R
AITKIN         CLEAR     45  43  93 CALM      29.82S
PINE RIVER     PTCLDY    46  45  93 CALM      29.87S
BRAINERD       CLEAR     47  45  93 S3        29.84S
STAPLES        PTCLDY    48  43  81 CALM      29.84F
LONG PRAIRIE   FAIR      45  43  93 S3        29.87S
LITTLE FALLS   CLEAR     45  43  93 CALM      29.85F
LITCHFIELD     CLEAR     55  48  76 CALM      29.88S
BUFFALO        CLEAR     55  46  74 CALM      29.87S
MAPLE LAKE     CLEAR     55  48  75 W5        29.87S
HUTCHINSON     CLOUDY    53  48  82 CALM      29.89R
$$
MNZ037-044-045-052-053-270900-
   East Central Minnesota

CITY           SKY/WX    TMP DP  RH WIND       PRES   REMARKS
PRINCETON      CLEAR     48  46  93 CALM      29.85S
MORA           CLEAR     50  46  87 W3        29.85S
CAMBRIDGE      CLEAR     52  45  76 CALM      29.83R
RUSH CITY      MOCLDY    51  47  84 CALM      29.84S
MOOSE LAKE     CLEAR     46  45  93 CALM      29.80S
HINCKLEY       FAIR      50  46  87 W5        29.84R
CLOQUET        CLEAR     52  45  76 NW3       29.81S
MCGREGOR       CLEAR     48  45  87 CALM      29.83F
$$
MNZ071>073-080-081-089-090-097-098-270900-
   Southwest Minnesota

CITY           SKY/WX    TMP DP  RH WIND       PRES   REMARKS
MONTEVIDEO     CLEAR     52  45  76 W3        29.88S
CANBY          CLEAR     53  46  78 CALM      29.90S
MARSHALL       CLOUDY    54  47  77 SW6       29.90S
REDWOOD FALLS  PTCLDY    55  45  68 W3        29.89R
OLIVIA         CLEAR     50  43  76 CALM      29.88R
PIPESTONE      CLOUDY    55  39  54 E3        29.90F
WINDOM         CLEAR     54  45  71 CALM      29.91S
WORTHINGTON    CLEAR     52  43  71 NW3       29.92S
JACKSON        CLEAR     52  43  71 CALM      29.91S
TRACY          PTCLDY    55  47  75 SW5       29.91R
SLAYTON        PTCLDY    50  44  79 W3        29.92S
$$
MNZ065>067-074>077-082>085-091>093-270900-
   South Central Minnesota

CITY           SKY/WX    TMP DP  RH WIND       PRES   REMARKS
MANKATO        CLEAR     57  47  69 W6        29.89
NEW ULM        CLEAR     54  46  76 CALM      29.89R
ST JAMES       CLEAR     54  46  76 W6        29.91R
FAIRMONT       CLEAR     55  45  68 NW9       29.91R
GLENCOE        CLEAR     57  50  77 W3        29.87R
FARIBAULT      CLEAR     52  48  87 CALM      29.88R
OWATONNA       CLEAR     52  48  87 CALM      29.88R
WASECA         CLEAR     52  46  82 CALM      29.89S
ALBERT LEA     CLEAR     54  52  94 CALM      29.88S
$$
MNZ078>079-086>088-094>096-270900-
   Southeast Minnesota

CITY           SKY/WX    TMP DP  RH WIND       PRES   REMARKS
ROCHESTER      CLEAR     56  51  84 W6        29.88S
RED WING       CLEAR     54  50  87 NW3       29.84S
STANTON        CLEAR     53  49  86 S3        29.85S
DODGE CENTER   CLEAR     54  46  76 W6        29.87S
WINONA         CLEAR     59  55  88 CALM      29.86S
AUSTIN         CLEAR     52  50  93 CALM      29.87S FOG
PRESTON        CLEAR     56  55  93 SW5       29.88R
$$
ABBREVIATIONS USED IN REMARKS
   TC - TEMPERATURES IN CELSIUS
  WCI - WIND CHILL INDEX
   HX - HEAT INDEX
  VSB - VISIBILITY
$$



USA.gov is the U.S. government's official web portal to all federal, state and local government web resources and services.